Location: Borbetomagus
(49.6328°N, 8.3592°E)
Time: 23:27:49
(UTC+00:00)

Cosmos 1356 Rocket - Pass Details

Date: 19 May 2025
Orbit: 517 x 565 km, 81.2° (Epoch: 22 June)

Event Time Altitude Azimuth Distance (km) Brightness Sun altitude
Exits shadow 20:28:29 14° 155° (SSE) 1,636 5.1 -10.4°
Maximum altitude 20:31:36 34° 94° (E) 938 4.1 -10.7°
Drops below altitude 10° 20:35:20 10° 29° (NNE) 1,861 6.3 -11.1°
Sets 20:37:38 0° 20° (NNE) 2,755 7.3 -11.3°
